User: anonymous   Login
Location: Lone Wolf Observatory
(41.0360°N, 89.2260°W)
Time: 18:25:41
(UTC-05:00)
Language:

Cosmos 1378 Rocket - Orbit

View from above orbital plane
View from above orbital plane
View from above satellite
View from above satellite

Ground track
Ground track

The orbit data is extracted from the following two-line orbital elements,

1 13272U 82059B   16244.48106986  .00000128  00000-0  12313-4 0  9993
2 13272  82.5089  51.3719 0018525 359.3622   0.7566 14.84542896848911
Epoch (UTC): 31 August 2016 11:32:44
Eccentricity: 0.0018525
inclination: 82.5089°
perigee height: 602 km
apogee height: 628 km
right ascension of ascending node: 51.3719°
argument of perigee: 359.3622°
revolutions per day: 14.84542896
mean anomaly at epoch: 0.7566°
orbit number at epoch: 84891

The dashed part of the orbit path shows where the satellite is in the earth's shadow,  

DLR